Nogales, AZ

8:09 PM MST on May 23, 2017 (GMT -0700)
Nogales International

Weather History for KOLS - March, 2013

Change the Weather History Date:

Tuesday, March 26, 2013

  Actual Average (KFHU) Record (KFHU)
Temperature  
Mean Temperature 62 °F -  
Max Temperature 81 °F 69 °F 89 °F (1988)
Min Temperature 43 °F 47 °F 31 °F (1983)
Degree Days  
Heating Degree Days 3    
Growing Degree Days 12 (Base 50)    
Moisture  
Dew Point 14 °F    
Average Humidity 18    
Maximum Humidity 35    
Minimum Humidity 7    
Precipitation  
Precipitation 0.00 in - - ()
Sea Level Pressure  
Sea Level Pressure 29.88 in    
Wind  
Wind Speed 5 mph (South)    
Max Wind Speed 18 mph    
Max Gust Speed 26 mph    
Visibility 10 miles    
Events      
Averages and records for this station are not official NWS values.
T = Trace of Precipitation, MM = Missing Value Source: NWS Daily Summary

Daily Weather History Graph

Daily Weather History Graph

Search for Another Location

Airport or City:

Trip Planner

Search our weather history database for the weather conditions in past years. The results will help you decide how hot, cold, wet, or windy it might be!

Date:

Astronomy

Mar. 26, 2013 Rise Set
Actual Time 6:19 AM MST 6:39 PM MST
Civil Twilight 5:54 AM MST 7:03 PM MST
Nautical Twilight 5:26 AM MST 7:31 PM MST
Astronomical Twilight 4:57 AM MST 8:00 PM MST
Moon 6:18 PM MST (3/26) 5:36 AM MST (3/26)
Length of Visible Light 13h 08m
Length of Day
12h 19m
Full, 100% of the Moon is Illuminated
Mar 26
Full
Mar 27
Full
Apr 2
Last Quarter
Apr 10
New
Apr 18
First Quarter

Hourly Weather History & Observations

Time (MST) Temp. Windchill Dew Point Humidity Pressure Visibility Wind Dir Wind Speed Gust Speed Precip Events Conditions
12:54 AM 46.9 °F - 15.1 °F 28% 29.91 in 10.0 mi ENE 4.6 mph - N/A   Clear
1:54 AM 45.0 °F - 15.1 °F 30% 29.90 in 10.0 mi Calm Calm - N/A   Clear
2:54 AM 44.1 °F 41.5 °F 15.1 °F 31% 29.88 in 10.0 mi ENE 4.6 mph - N/A   Clear
3:54 AM 43.0 °F 41.3 °F 15.1 °F 32% 29.88 in 10.0 mi NE 3.5 mph - N/A   Clear
4:54 AM 44.1 °F - 16.0 °F 32% 29.88 in 10.0 mi Calm Calm - N/A   Clear
5:54 AM 45.0 °F - 16.0 °F 31% 29.90 in 10.0 mi Calm Calm - N/A   Clear
6:54 AM 43.0 °F 39.5 °F 17.1 °F 35% 29.93 in 10.0 mi South 5.8 mph - N/A   Clear
7:54 AM 48.9 °F - 19.0 °F 31% 29.95 in 10.0 mi SSE 3.5 mph - N/A   Clear
8:54 AM 60.1 °F - 17.1 °F 19% 29.94 in 10.0 mi SSW 3.5 mph - N/A   Clear
9:54 AM 69.1 °F - 15.1 °F 13% 29.91 in 10.0 mi South 5.8 mph - N/A   Clear
10:54 AM 75.9 °F - 12.9 °F 9% 29.89 in 10.0 mi SW 8.1 mph - N/A   Clear
11:54 AM 77.0 °F - 12.9 °F 9% 29.88 in 10.0 mi SSE 9.2 mph - N/A   Clear
12:54 PM 79.0 °F - 12.0 °F 8% 29.86 in 10.0 mi SSW 8.1 mph - N/A   Clear
1:54 PM 80.1 °F - 10.9 °F 7% 29.85 in 10.0 mi North - - N/A   Clear
2:54 PM 81.0 °F - 10.0 °F 7% 29.83 in 10.0 mi SSW 16.1 mph 26.5 mph N/A   Clear
3:54 PM 81.0 °F - 10.0 °F 7% 29.82 in 10.0 mi SSW 16.1 mph 21.9 mph N/A   Clear
4:54 PM 79.0 °F - 9.0 °F 7% 29.81 in 10.0 mi WSW 18.4 mph - N/A   Clear
5:54 PM 75.9 °F - 9.0 °F 8% 29.82 in 10.0 mi WSW 9.2 mph - N/A   Clear
6:54 PM 71.1 °F - 12.0 °F 10% 29.84 in 10.0 mi SW 5.8 mph - N/A   Clear
7:54 PM 66.9 °F - 12.0 °F 12% 29.85 in 10.0 mi Calm Calm - N/A   Clear
8:54 PM 62.1 °F - 14.0 °F 15% 29.86 in 10.0 mi SE 3.5 mph - N/A   Clear
9:54 PM 63.0 °F - 15.1 °F 16% 29.87 in 10.0 mi SE 3.5 mph - N/A   Clear
10:54 PM 60.1 °F - 16.0 °F 18% 29.87 in 10.0 mi South 4.6 mph - N/A   Clear
11:54 PM 55.9 °F - 17.1 °F 22% 29.87 in 10.0 mi ESE 3.5 mph - N/A   Clear